TimeCDT,TemperatureF,Dew PointF,Humidity,Sea Level PressureIn,VisibilityMPH,Wind Direction,Wind SpeedMPH,Gust SpeedMPH,PrecipitationIn,Events,Conditions,WindDirDegrees,DateUTC
12:53 AM,46.0,41.0,83,29.82,10.0,South,4.6,-,N/A,,Mostly Cloudy,180,2012-10-21 05:53:00
1:53 AM,46.0,41.0,83,29.82,10.0,South,8.1,-,N/A,,Clear,180,2012-10-21 06:53:00
2:53 AM,46.0,41.0,83,29.81,10.0,South,11.5,-,N/A,,Scattered Clouds,170,2012-10-21 07:53:00
3:53 AM,46.0,41.0,83,29.82,10.0,Calm,Calm,-,N/A,,Clear,0,2012-10-21 08:53:00
4:53 AM,45.0,41.0,86,29.82,9.0,SE,3.5,-,N/A,,Clear,140,2012-10-21 09:53:00
5:53 AM,45.0,39.9,82,29.82,8.0,SE,4.6,-,N/A,,Clear,140,2012-10-21 10:53:00
6:53 AM,44.1,39.9,85,29.82,7.0,SE,6.9,-,N/A,,Clear,140,2012-10-21 11:53:00
7:53 AM,44.1,39.9,85,29.82,5.0,SE,3.5,-,N/A,,Clear,130,2012-10-21 12:53:00
8:53 AM,45.0,41.0,86,29.82,5.0,SE,5.8,-,N/A,,Clear,140,2012-10-21 13:53:00
9:53 AM,50.0,42.1,74,29.83,10.0,SE,9.2,-,N/A,,Clear,140,2012-10-21 14:53:00
10:53 AM,54.0,42.1,64,29.83,10.0,SE,8.1,-,N/A,,Clear,130,2012-10-21 15:53:00
11:53 AM,59.0,41.0,51,29.81,10.0,SE,8.1,-,N/A,,Clear,140,2012-10-21 16:53:00
12:53 PM,59.0,42.1,53,29.81,10.0,ENE,6.9,-,N/A,,Clear,70,2012-10-21 17:53:00
1:53 PM,61.0,41.0,48,29.80,10.0,East,6.9,-,N/A,,Clear,90,2012-10-21 18:53:00
2:53 PM,62.1,39.9,44,29.81,10.0,ESE,4.6,-,N/A,,Partly Cloudy,120,2012-10-21 19:53:00
3:53 PM,62.1,42.1,48,29.83,10.0,SW,10.4,-,N/A,,Clear,220,2012-10-21 20:53:00
4:53 PM,61.0,42.1,50,29.85,10.0,West,6.9,-,N/A,,Overcast,270,2012-10-21 21:53:00
5:53 PM,60.1,42.1,51,29.88,10.0,WNW,4.6,-,N/A,,Partly Cloudy,300,2012-10-21 22:53:00
6:53 PM,55.9,43.0,62,29.91,10.0,West,3.5,-,N/A,,Mostly Cloudy,280,2012-10-21 23:53:00
7:53 PM,55.9,43.0,62,29.92,10.0,North,12.7,-,N/A,,Clear,360,2012-10-22 00:53:00
8:53 PM,55.0,44.1,67,29.96,10.0,NNE,11.5,-,N/A,,Clear,20,2012-10-22 01:53:00
9:53 PM,54.0,44.1,69,29.95,10.0,NNE,4.6,-,N/A,,Clear,30,2012-10-22 02:53:00
10:53 PM,53.1,44.1,71,29.96,10.0,North,5.8,-,N/A,,Clear,10,2012-10-22 03:53:00
11:53 PM,51.1,44.1,77,29.96,10.0,North,5.8,-,N/A,,Clear,10,2012-10-22 04:53:00